| time (UTC) | temp C | wind direction | speed KPH | gust KPH | rain 1hr cm | rain 24hr cm | rain mn cm | humidity % | barometer mb |
| 20260504014528 | 12 | 0.0 | 0.0 | 0.00 | 0.00 | 0.00 | 66 | 1014.8 | |
| 20260504013526 | 12 | 0.0 | 0.0 | 0.00 | 0.00 | 0.00 | 64 | 1014.7 | |
| 20260504012530 | 13 | 0.0 | 0.0 | 0.00 | 0.00 | 0.00 | 62 | 1014.8 | |
| 20260504011526 | 13 | 0.0 | 0.0 | 0.00 | 0.00 | 0.00 | 60 | 1014.8 | |
| 20260504010538 | 13 | 0.0 | 0.0 | 0.00 | 0.00 | 0.00 | 60 | 1014.7 | |
| 20260504005520 | 14 | 0.0 | 0.0 | 0.00 | 0.00 | 0.00 | 59 | 1014.7 | |
| 20260504004539 | 15 | 0.0 | 0.0 | 0.00 | 0.00 | 0.00 | 57 | 1014.7 | |
| 20260504003516 | 15 | 0.0 | 0.0 | 0.00 | 0.00 | 0.00 | 55 | 1014.7 | |
| 20260504002527 | 16 | 0.0 | 0.0 | 0.00 | 0.00 | 0.00 | 53 | 1014.4 | |
| 20260504001532 | 16 | 0.0 | 0.0 | 0.00 | 0.00 | 0.00 | 52 | 1014.6 | |
| 20260504000536 | 17 | 180 | 3.2 | 8.0 | 0.00 | 0.00 | 0.00 | 50 | 1014.6 |
| 20260503235519 | 17 | 0.0 | 0.0 | 0.00 | 0.00 | 0.00 | 49 | 1014.5 | |
| 20260503234524 | 17 | 0.0 | 0.0 | 0.00 | 0.00 | 0.00 | 49 | 1014.5 | |
| 20260503233533 | 17 | 184 | 3.2 | 6.4 | 0.00 | 0.00 | 0.00 | 48 | 1014.7 |
| 20260503232519 | 18 | 0.0 | 0.0 | 0.00 | 0.00 | 0.00 | 47 | 1015.0 | |
| 20260503231524 | 19 | 0.0 | 0.0 | 0.00 | 0.00 | 0.00 | 45 | 1015.1 | |
| 20260503230521 | 20 | 194 | 1.6 | 6.4 | 0.00 | 0.00 | 0.00 | 44 | 1015.2 |
| 20260503225519 | 20 | 258 | 1.6 | 6.4 | 0.00 | 0.00 | 0.00 | 43 | 1015.4 |
| 20260503224521 | 20 | 207 | 1.6 | 6.4 | 0.00 | 0.00 | 0.00 | 42 | 1015.4 |
| 20260503223525 | 20 | 232 | 4.8 | 11.3 | 0.00 | 0.00 | 0.00 | 42 | 1015.6 |
| 20260503222523 | 20 | 270 | 0.0 | 9.7 | 0.00 | 0.00 | 0.00 | 41 | 1015.9 |
| 20260503221527 | 20 | 195 | 3.2 | 9.7 | 0.00 | 0.00 | 0.00 | 40 | 1016.1 |
| 20260503220524 | 21 | 0.0 | 0.0 | 0.00 | 0.00 | 0.00 | 41 | 1016.2 | |
| 20260503215521 | 20 | 225 | 1.6 | 6.4 | 0.00 | 0.00 | 0.00 | 41 | 1016.4 |
| 20260503214526 | 19 | 236 | 9.7 | 16.1 | 0.00 | 0.00 | 0.00 | 41 | 1016.4 |
| 20260503213524 | 20 | 236 | 4.8 | 17.7 | 0.00 | 0.00 | 0.00 | 42 | 1015.9 |
| 20260503212527 | 19 | 194 | 1.6 | 9.7 | 0.00 | 0.00 | 0.00 | 43 | 1016.4 |
| 20260503211540 | 20 | 270 | 1.6 | 11.3 | 0.00 | 0.00 | 0.00 | 41 | 1016.5 |
| 20260503210528 | 19 | 203 | 1.6 | 6.4 | 0.00 | 0.00 | 0.00 | 42 | 1016.5 |
| 20260503205525 | 19 | 196 | 1.6 | 8.0 | 0.00 | 0.00 | 0.00 | 42 | 1016.4 |
| 20260503204523 | 19 | 0.0 | 4.8 | 0.00 | 0.00 | 0.00 | 42 | 1016.8 | |
| 20260503203541 | 19 | 185 | 3.2 | 11.3 | 0.00 | 0.00 | 0.00 | 43 | 1017.0 |
| 20260503202519 | 19 | 209 | 3.2 | 6.4 | 0.00 | 0.00 | 0.00 | 43 | 1017.4 |
| 20260503201537 | 19 | 231 | 4.8 | 9.7 | 0.00 | 0.00 | 0.00 | 41 | 1017.6 |
| 20260503200519 | 18 | 242 | 3.2 | 14.5 | 0.00 | 0.00 | 0.00 | 41 | 1017.9 |
| 20260503195523 | 18 | 203 | 1.6 | 9.7 | 0.00 | 0.00 | 0.00 | 42 | 1018.2 |
| 20260503194526 | 18 | 259 | 1.6 | 8.0 | 0.00 | 0.00 | 0.00 | 41 | 1018.3 |
| 20260503193524 | 18 | 270 | 0.0 | 3.2 | 0.00 | 0.00 | 0.00 | 42 | 1018.5 |
| 20260503192517 | 18 | 270 | 0.0 | 1.6 | 0.00 | 0.00 | 0.00 | 43 | 1018.5 |
| 20260503191520 | 19 | 203 | 0.0 | 4.8 | 0.00 | 0.00 | 0.00 | 42 | 1018.8 |
| 20260503190544 | 18 | 0.0 | 0.0 | 0.00 | 0.00 | 0.00 | 43 | 1018.9 | |
| 20260503185522 | 18 | 251 | 8.0 | 16.1 | 0.00 | 0.00 | 0.00 | 40 | 1019.0 |
| 20260503184520 | 18 | 245 | 6.4 | 12.9 | 0.00 | 0.00 | 0.00 | 42 | 1019.2 |
| 20260503183538 | 18 | 202 | 4.8 | 8.0 | 0.00 | 0.00 | 0.00 | 42 | 1019.4 |
| 20260503182516 | 18 | 204 | 4.8 | 9.7 | 0.00 | 0.00 | 0.00 | 43 | 1019.4 |
| 20260503181532 | 18 | 230 | 6.4 | 11.3 | 0.00 | 0.00 | 0.00 | 45 | 1019.6 |
| 20260503180537 | 17 | 222 | 4.8 | 9.7 | 0.00 | 0.00 | 0.00 | 44 | 1019.7 |
| 20260503175522 | 17 | 226 | 4.8 | 8.0 | 0.00 | 0.00 | 0.00 | 45 | 1019.8 |
| 20260503174528 | 18 | 123 | 3.2 | 6.4 | 0.00 | 0.00 | 0.00 | 46 | 1020.3 |
| 20260503173526 | 17 | 218 | 6.4 | 9.7 | 0.00 | 0.00 | 0.00 | 45 | 1020.1 |
| 20260503172530 | 17 | 178 | 4.8 | 8.0 | 0.00 | 0.00 | 0.00 | 47 | 1020.5 |
| 20260503171533 | 17 | 154 | 4.8 | 6.4 | 0.00 | 0.00 | 0.00 | 46 | 1020.6 |
| 20260503170518 | 17 | 123 | 3.2 | 6.4 | 0.00 | 0.00 | 0.00 | 45 | 1020.8 |
| 20260503150517 | 14 | 213 | 4.8 | 8.0 | 0.00 | 0.00 | 0.00 | 53 | 1021.4 |
| 20260503130529 | 6 | 0.0 | 0.0 | 0.00 | 0.00 | 0.00 | 89 | 1021.5 | |
| 20260503110539 | 0 | 0.0 | 0.0 | 0.00 | 0.00 | 0.00 | 99 | 1020.8 | |
| 20260503081525 | 1 | 0.0 | 0.0 | 0.00 | 0.00 | 0.00 | 99 | 1020.3 | |
| 20260503080528 | 1 | 0.0 | 0.0 | 0.00 | 0.00 | 0.00 | 99 | 1020.3 | |
| 20260503072530 | 1 | 0.0 | 0.0 | 0.00 | 0.00 | 0.00 | 99 | 1019.9 | |
| 20260503071527 | 2 | 0.0 | 0.0 | 0.00 | 0.00 | 0.00 | 99 | 1020.0 | |
| 20260503070546 | 2 | 0.0 | 0.0 | 0.00 | 0.00 | 0.00 | 99 | 1019.9 | |
| 20260503054546 | 3 | 0.0 | 0.0 | 0.00 | 0.00 | 0.00 | 99 | 1019.8 | |
| 20260503053519 | 3 | 0.0 | 0.0 | 0.00 | 0.00 | 0.00 | 99 | 1019.8 | |
| 20260503052520 | 3 | 0.0 | 0.0 | 0.00 | 0.00 | 0.00 | 99 | 1019.8 | |
| 20260503051518 | 3 | 0.0 | 0.0 | 0.00 | 0.00 | 0.00 | 97 | 1019.8 | |
| 20260503050522 | 4 | 0.0 | 0.0 | 0.00 | 0.00 | 0.00 | 96 | 1019.7 | |
| 20260503045526 | 4 | 0.0 | 0.0 | 0.00 | 0.00 | 0.00 | 97 | 1019.6 | |
| 20260503044523 | 5 | 0.0 | 0.0 | 0.00 | 0.00 | 0.00 | 96 | 1019.6 | |
| 20260503043528 | 5 | 0.0 | 0.0 | 0.00 | 0.00 | 0.00 | 97 | 1019.6 | |
| 20260503042531 | 5 | 0.0 | 0.0 | 0.00 | 0.00 | 0.00 | 97 | 1019.5 | |
| 20260503041528 | 5 | 0.0 | 0.0 | 0.00 | 0.00 | 0.00 | 97 | 1019.7 | |
| 20260503040533 | 5 | 0.0 | 0.0 | 0.00 | 0.00 | 0.00 | 99 | 1019.8 | |
| 20260503035518 | 5 | 0.0 | 0.0 | 0.00 | 0.00 | 0.00 | 99 | 1019.8 | |
| 20260503034522 | 6 | 0.0 | 0.0 | 0.00 | 0.00 | 0.00 | 99 | 1019.8 | |
| 20260503033519 | 6 | 0.0 | 0.0 | 0.00 | 0.00 | 0.00 | 99 | 1019.8 | |
| 20260503032518 | 6 | 158 | 0.0 | 1.6 | 0.00 | 0.00 | 0.00 | 99 | 1019.5 |
| 20260503031533 | 6 | 0.0 | 0.0 | 0.00 | 0.00 | 0.00 | 98 | 1019.5 | |
| 20260503030551 | 6 | 0.0 | 0.0 | 0.00 | 0.00 | 0.00 | 97 | 1019.5 | |
| 20260503025530 | 6 | 0.0 | 0.0 | 0.00 | 0.00 | 0.00 | 95 | 1019.4 | |
| 20260503024528 | 6 | 0.0 | 0.0 | 0.00 | 0.00 | 0.00 | 95 | 1019.3 | |
| 20260503023546 | 7 | 0.0 | 0.0 | 0.00 | 0.00 | 0.00 | 95 | 1019.2 | |
| 20260503022523 | 7 | 0.0 | 0.0 | 0.00 | 0.00 | 0.00 | 94 | 1018.8 | |
| 20260503021520 | -17 | 0.0 | 0.0 | 0.00 | 0.00 | 0.00 | 1018.7 | ||
| 20260503020538 | -17 | 0.0 | 0.0 | 0.00 | 0.00 | 0.00 | 1018.6 | ||
| 20260503015534 | -17 | 0.0 | 0.0 | 0.00 | 0.00 | 0.00 | 1018.4 |